Home   Weather   Dalian   Past weeks
Flag for China

Past Weather in Dalian, Liaoning, China — Yesterday and Last 2 Weeks

Now
41 °F

Clear.


Feels Like: 41 °F
Forecast: 57 / 43 °F
Wind: 1 mph from North

Location: Dalian Airport

Current Time: Oct 15, 2019 at 2:44:11 am

Latest Report: Oct 15, 2019 at 2:00 am


Visibility: 10 mi

Pressure: 30.57 "Hg

Humidity: 42%

Dew Point: 19 °F

Location of DalianLocation

Past Weather in Dalian — Graph

°F

Dalian Temperature Yesterday

Maximum temperature yesterday: 52 °F (at 1:00 pm)
Minimum temperature yesterday: 45 °F (at 4:00 am)
Average temperature yesterday: 48 °F

High & Low Weather Summary for the Past Weeks

 TemperatureHumidityPressure
High82 °F (Oct 1, 11:00 am)100% (Sep 30, 1:00 am)30.60 "Hg (Sep 30, 1:00 am)
Low41 °F (Oct 15, 1:00 am)20% (Oct 6, 11:00 am)29.86 "Hg (Oct 2, 3:00 pm)
Average60 °F61%30.12 "Hg
* Reported Sep 30 1:00 am — Oct 15 1:30 am, Dalian. Weather by CustomWeather, © 2019

Note: Actual official high and low records may vary slightly from our data, if they occured in-between our weather recording intervals... More about our weather records

Advertising

Dalian Weather History for the Previous 24 Hours

Scroll right to see more
 ConditionsComfort  
Time TempWeatherWind HumidityBarometerVisibility
1:30 am
Tue, Oct 15
43 °FClear.1 mph39%30.57 "Hg10 mi
1:00 am41 °FClear.1 mph39%30.57 "Hg10 mi
12:30 am45 °FClear.1 mph34%30.57 "Hg10 mi
12:00 am43 °FClear.1 mph36%30.57 "Hg10 mi
11:30 pm
Mon, Oct 14
45 °FClear.1 mph37%30.60 "Hg10 mi
11:00 pm45 °FClear.3 mph37%30.60 "Hg10 mi
10:30 pm46 °FClear.3 mph37%30.57 "Hg10 mi
10:00 pm46 °FPassing clouds.3 mph37%30.60 "HgN/A
9:30 pm48 °FPassing clouds.8 mph34%30.60 "HgN/A
9:00 pm48 °FPassing clouds.8 mph37%30.57 "HgN/A
8:30 pm48 °FPassing clouds.10 mph34%30.57 "HgN/A
8:00 pm50 °FPassing clouds.10 mph32%30.57 "HgN/A
7:30 pm48 °FClear.10 mph34%30.57 "Hg10 mi
7:00 pm50 °FPassing clouds.13 mph35%30.57 "HgN/A
6:30 pm50 °FPassing clouds.10 mph32%30.57 "HgN/A
6:00 pm50 °FPassing clouds.13 mph35%30.57 "HgN/A
5:30 pm50 °FPassing clouds.10 mph32%30.57 "HgN/A
5:00 pm50 °FPassing clouds.10 mph32%30.57 "HgN/A
4:30 pm50 °FPassing clouds.15 mph32%30.54 "HgN/A
4:00 pm50 °FPassing clouds.15 mph32%30.54 "HgN/A
3:30 pm50 °FPassing clouds.17 mph35%30.54 "HgN/A
3:00 pm50 °FPassing clouds.17 mph37%30.54 "HgN/A
2:30 pm50 °FPassing clouds.15 mph37%30.54 "HgN/A
2:00 pm52 °FPassing clouds.17 mph32%30.54 "HgN/A
1:30 pm52 °FPassing clouds.17 mph30%30.54 "HgN/A
1:00 pm52 °FPassing clouds.15 mph30%30.54 "HgN/A
12:30 pm50 °FPassing clouds.20 mph32%30.54 "HgN/A
12:00 pm50 °FPassing clouds.17 mph32%30.54 "HgN/A
11:30 am50 °FPassing clouds.15 mph35%30.54 "HgN/A
11:00 am50 °FPassing clouds.15 mph35%30.57 "HgN/A
10:30 am50 °FPassing clouds.15 mph37%30.57 "HgN/A
10:00 am50 °FPassing clouds.15 mph35%30.57 "HgN/A
9:30 am48 °FSunny.17 mph37%30.57 "Hg10 mi
9:00 am48 °FPassing clouds.15 mph37%30.57 "HgN/A
8:30 am46 °FPassing clouds.10 mph40%30.57 "HgN/A
8:00 am46 °FPassing clouds.10 mph40%30.57 "HgN/A
7:30 am46 °FPassing clouds.13 mph40%30.54 "HgN/A
7:00 am45 °FPassing clouds.10 mph46%30.54 "HgN/A
6:30 am45 °FPassing clouds.13 mph42%30.54 "HgN/A
6:00 am46 °FPassing clouds.13 mph37%30.51 "HgN/A
5:30 am46 °FPassing clouds.13 mph37%30.51 "HgN/A
5:00 am46 °FPassing clouds.10 mph40%30.51 "HgN/A
4:30 am46 °FPassing clouds.8 mph40%30.48 "HgN/A
4:00 am45 °FPassing clouds.8 mph46%30.48 "HgN/A
3:30 am46 °FPassing clouds.10 mph46%30.48 "HgN/A
3:00 am46 °FPassing clouds.8 mph50%30.48 "HgN/A
2:30 am46 °FPassing clouds.10 mph53%30.48 "HgN/A
2:00 am46 °FPassing clouds.13 mph53%30.48 "HgN/A
Weather by CustomWeather, © 2019

See weather overview